{"data":{"norad_id":66089,"intl_designator":"2025-236D","name":"STARLINK-35571","alt_names":[],"object_type":"PAYLOAD","status":"ACTIVE","operator":null,"country":"US","launch_date":"2025-10-19","launch_site_code":"AFWTR","launch_vehicle":null,"mission":null,"orbit_class":"UNKNOWN","rcs_meters":null,"size_class":null,"mass_kg":null,"dimensions":null,"purposes":["comms"],"wikipedia_slug":null,"has_3d_model":false,"image_url":null,"decayed_at":null,"tle_current":{"epoch":"2026-09-20T07:33:23.173056Z","epoch_age_seconds":118998,"freshness":"FRESH","line1":"1 66089U 25236D   26263.31485154  .00010695  00000+0  32718-3 0  9991","line2":"2 66089  53.1586 278.3675 0001322  89.7203 270.3952 15.34403750 52764","mean_motion":15.3440375,"eccentricity":0.0001322,"inclination_deg":53.1586,"raan_deg":278.3675,"arg_perigee_deg":89.7203,"mean_anomaly_deg":270.3952,"bstar":0.00032718,"rev_number":5276,"period_min":93.847528722476,"perigee_km":461.78773683324,"apogee_km":463.59645204581,"semimajor_km":6840.8290944395,"source":"CELESTRAK","updated_at":"2026-09-21T09:00:35.800743Z"}}}